Regional Weather Roundup
Issued by NWS

Home | Current Version | Previous Version | Graphics & Text | Print | Product List | Glossary Off
Versions: 1 2 3 4 5 6 7 8 9 10 11 12 13 14 15 16 17 18 19 20 21 22 23 24 25 26 27 28 29 30 31 32 33 34 35 36 37 38 39 40 41 42 43 44 45 46 47 48 49 50

000
ASUS43 KMKX 240600
RWRWI

WISCONSIN REGIONAL WEATHER ROUNDUP
NATIONAL WEATHER SERVICE MILWAUKEE/SULLIVAN WI
1200 AM CST MON NOV 24 2014

NOTE: "FAIR" INDICATES FEW OR NO CLOUDS BELOW 12,000 FEET WITH NO
SIGNIFICANT WEATHER AND/OR OBSTRUCTIONS TO VISIBILITY.

WIZ001-002-006>008-014>016-023>028-240700-
NORTHWEST WISCONSIN

CITY           SKY/WX    TMP DP  RH WIND       PRES   REMARKS
SUPERIOR ARPT  DRIZZLE   36  34  92 N6        29.29F WCI  31
ASHLAND        MIX PCPN  36  36 100 N7        29.25F FOG     WCI  30
6HR MIN TEMP:  36; 6HR MAX TEMP:  40; 6HR PCP:  0.04;

HAYWARD        LGT RAIN  36  34  92 N6        29.24F FOG     WCI  31
6HR MIN TEMP:  36; 6HR MAX TEMP:  40; 6HR PCP:  0.13;

SIREN          LGT RAIN  36  35  96 NW7       29.29F WCI  30
CUMBERLAND     LGT RAIN  34  32  93 NW13      29.25F WCI  25
RICE LAKE      DRIZZLE   36  35  99 NW9       29.25F WCI  29
CHETEK         LGT RAIN  36  36 100 NW7       29.23F WCI  30
LADYSMITH      CLOUDY    40  39  99 NW12      29.21F FOG     WCI  32
EAU CLAIRE     CLOUDY    38  36  92 NW9       29.20F FOG     WCI  31
6HR MIN TEMP:  38; 6HR MAX TEMP:  48; 6HR PCP:  0.07;

MENOMONIE      LGT RAIN  38  37  99 W10       29.24F WCI  30
NEW RICHMOND   DRIZZLE   36  36 100 NW12      29.29F WCI  28
OSCEOLA        DRIZZLE   37  37 100 NW8       29.33F WCI  30
$$

WIZ003>005-009-010-017-018-240700-
NORTH CENTRAL WISCONSIN

CITY           SKY/WX    TMP DP  RH WIND       PRES   REMARKS
MANITOWISH WTR DRIZZLE   40  40 100 N3        29.18F
ARBOR VITAE    DRZL/FOG  39  38  97 CALM      29.17F VSB 1/2
WOODRUFF       DRZL/FOG  39  38  97 CALM      29.17F VSB 1/2
RHINELANDER    LGT RAIN  37  37 100 CALM      29.16F VSB 1/4
6HR MIN TEMP:  37; 6HR MAX TEMP:  42; 6HR PCP:  0.08;

EAGLE RIVER    LGT RAIN  38  38 100 CALM      29.17F VSB 1/2
LAND O LAKES   RAIN      38  38 100 CALM      29.19F VSB 1/2
PHILLIPS       DRIZZLE   40  40 100 N5        29.17F
TOMAHAWK       LGT RAIN  38  37  97 CALM      29.18F VSB 1/2
MEDFORD        LGT RAIN  40  40 100 CALM      29.16F VSB 1/2
MERRILL        RAIN      40  40 100 NE3       29.17F VSB 1/2
$$

WIZ029-030-035-036-043>047-240700-
CENTRAL WISCONSIN

CITY           SKY/WX    TMP DP  RH WIND       PRES   REMARKS
WAUSAU         LGT RAIN  42  41  96 CALM      29.13F VSB 1/2
6HR MIN TEMP:  41; 6HR MAX TEMP:  44; 6HR PCP:  0.04;

MOSINEE        DRZL/FOG  41  41 100 CALM      29.17F VSB 1/2
MARSHFIELD     FOG       43  42  97 E3        29.14F VSB 1/4
6HR MIN TEMP:  43; 6HR MAX TEMP:  46; 6HR PCP: TRACE;

STEVENS POINT  LGT RAIN  41  41 100 CALM      29.16F VSB 1/2
WAUPACA        LGT RAIN  45  43  95 N3        29.15F VSB 3/4
WAUTOMA        LGT RAIN  45  45 100 CALM      29.14F VSB 1/2
WISC RAPIDS    LGT RAIN  43  41  93 NE3       29.15F VSB 1
6HR MIN TEMP:  43; 6HR MAX TEMP:  47; 6HR PCP:  0.05;

CAMP DOUGLAS   DRZL/FOG  45  45 100 NW3       29.14F VSB 3/4
$$

WIZ011>013-019>022-031-037>040-048>050-240700-
NORTHEAST WISCONSIN

CITY           SKY/WX    TMP DP  RH WIND       PRES   REMARKS
ANTIGO         LGT RAIN  37  37 100 CALM      29.16F VSB 1/2
SHAWANO        DRZL/FOG  42  41  96 CALM      29.16F VSB 1/4
OCONTO         CLOUDY    41  41 100 CALM      29.15F VSB 1/2
STURGEON BAY   CLOUDY    46  45  93 CALM      29.13F VSB 1/2
6HR MIN TEMP:  45; 6HR MAX TEMP:  46;

GREEN BAY      LGT RAIN  44  43  96 NW3       29.13F VSB 1/2
6HR MIN TEMP:  42; 6HR MAX TEMP:  46; 6HR PCP:  0.17;

MANITOWOC      LGT RAIN  43  43 100 N3        29.12F VSB 3/4
APPLETON       DRZL/FOG  43  43 100 NW5       29.14F VSB 1/2
CLINTONVILLE   LGT RAIN  43  41  93 CALM      29.16F VSB 1/2
OSHKOSH        LGT RAIN  44  42  93 NW5       29.11F VSB 3/4
6HR MIN TEMP:  43; 6HR MAX TEMP:  47; 6HR PCP:  0.17;

$$

WIZ032>034-041-042-053>061-240700-
SOUTHWEST WISCONSIN

CITY           SKY/WX    TMP DP  RH WIND       PRES   REMARKS
LA CROSSE      LGT RAIN  40  39  97 NW13      29.19F FOG     WCI  32
6HR MIN TEMP:  40; 6HR MAX TEMP:  48; 6HR PCP:  0.09;

SPARTA         DRIZZLE   45  45 100 W8        29.17F
VIROQUA        CLOUDY    42  42 100 NW16      29.16F
BOSCOBEL       FOG       46  44  93 W6        29.15F VSB 1/2
6HR MIN TEMP:  46; 6HR MAX TEMP:  48; 6HR PCP: TRACE;

PRAIRIE DU CHI CLOUDY    41  40  96 NW8       29.18F
PLATTEVILLE    CLOUDY    45  44  97 W5        29.15F VSB 1/4
$$

WIZ056-057-062-063-064-067-068-240700-
SOUTH CENTRAL WISCONSIN

CITY           SKY/WX    TMP DP  RH WIND       PRES   REMARKS
REEDSBURG      FOG       44  44 100 CALM      29.13F VSB 1/2
BARABOO/DELLS  DRZL/FOG  44  43  96 CALM      29.13F VSB 1/2
LONE ROCK      NOT AVBL
MINERAL POINT  FOG       46  45  93 CALM      29.13F VSB 1/4
MADISON        FOG       45  44  97 NW3       29.11F VSB 1/2
6HR MIN TEMP:  45; 6HR MAX TEMP:  48; 6HR PCP:  0.17;

MIDDLETON      CLOUDY    45  45 100 CALM      29.12F VSB 1/2
WATERTOWN      DRZL/FOG  45  45 100 CALM      29.10F VSB 1
MONROE         FOG       45  45 100 CALM      29.11F VSB 1/2
JANESVILLE     DRZL/FOG  46  45  93 CALM      29.11F VSB 1/2
$$

WIZ051-052-058>065-066-070>072-240700-
SOUTHEAST WISCONSIN

CITY           SKY/WX    TMP DP  RH WIND       PRES   REMARKS
MILWAUKEE      LGT RAIN  46  44  93 N3        29.08F VSB 1/4
6HR MIN TEMP:  46; 6HR MAX TEMP:  48; 6HR PCP:  0.47;

WAUKESHA       RAIN      43  43 100 CALM      29.10F VSB 3/4
MILWAUKEE/TIMM DRZL/FOG  45  43  93 N3        29.11F VSB 1
RACINE         LGT RAIN  46  45  96 CALM      29.10F FOG
6HR MIN TEMP:  46; 6HR MAX TEMP:  47; 6HR PCP:  0.57;

BURLINGTON     LGT RAIN  43  43 100 NW3       29.09F VSB 1/2
KENOSHA        LGT RAIN  46  45  96 CALM      29.08F VSB 1/2
6HR MIN TEMP:  46; 6HR MAX TEMP:  48; 6HR PCP:  0.51;

FOND DU LAC    LGT RAIN  44  42  93 CALM      29.11F VSB 1/2
6HR MIN TEMP:  43; 6HR MAX TEMP:  47; 6HR PCP:  0.20;

SHEBOYGAN      LGT RAIN  43  42  97 MISG      29.10F VSB 1
6HR MIN TEMP:  43; 6HR MAX TEMP:  46; 6HR PCP:  0.37;

WEST BEND      LGT RAIN  43  41  93 CALM      29.11F
JUNEAU         LGT RAIN  43  43  99 CALM      29.12F VSB<1/4
$$

LSZ147-162-240700-
LAKE SUPERIOR

STATION/POSITION TIME  TEMP    WIND        PRES    WAVE
                       AIR SEA DIR/SP/G            HT/PER
                 (UTC) (F)     (DEG/KT/KT) (MB)    (FT/S)
DEVILS ISLAND    0500   39     330/ 13/ 14  991.9F
PORT WING        0540   37     330/ 10/ 11  991.9F
SAXON HARBOR     0500   38     320/  7/  7  991.2
$$

LMZ867-665-643>646-240700-
LAKE MICHIGAN

STATION/POSITION TIME  TEMP    WIND        PRES    WAVE
                       AIR SEA DIR/SP/G            HT/PER
                 (UTC) (F)     (DEG/KT/KT) (MB)    (FT/S)
CHAMBERS ISLAND  0500   42     330/  4/  5  989.2F
N MID LAKE BUOY  0450   44 42  100/ 10/ 12  989.6F   3/ 6
NORTHPORT PIER   0500   43     140/  2/  7  989.2F
SISTER BAY       0443          120/  3/  5   N/A
KEWAUNEE LAKESHO 0500   44      90/  4/  7  987.2F
SHEBOYGAN LAKESH 0500   45 39   CALM  /  2  987.1F
PORT WASHINGTON  0500   45     310/  2/  2  987.8F
MILWAUKEE LAKESH 0500   45     340/  3/  3   N/A
S MID LAKE BUOY  0450   45 42  120/  8/  8  986.2F   1/ 3
KENOSHA   LAKESH 0500   45        CALM      986.5F
$$

TC  - TEMPERATURE IN CELSIUS
VSB - VISIBILITY IN STATUTE MILES
WCI - WIND CHILL INDEX
HX  - HEAT INDEX



USA.gov is the U.S. government's official web portal to all federal, state and local government web resources and services.